Hot Springs, VA

4:17 AM EDT on August 18, 2017 (GMT -0400)
Ingalls

Weather History for KHSP - November, 2010

Change the Weather History Date:

Wednesday, November 24, 2010

  Actual Average Record
Temperature  
Mean Temperature 37 °F -  
Max Temperature 44 °F 43 °F 62 °F (2014)
Min Temperature 30 °F 30 °F 6 °F (2013)
Degree Days  
Heating Degree Days 28    
Moisture  
Dew Point 18 °F    
Average Humidity 43    
Maximum Humidity 69    
Minimum Humidity 27    
Precipitation  
Precipitation 0.00 in - - ()
Sea Level Pressure  
Sea Level Pressure 30.18 in    
Wind  
Wind Speed 11 mph (West)    
Max Wind Speed 20 mph    
Max Gust Speed 30 mph    
Visibility 10 miles    
Events      
Averages and records for this station are not official NWS values.
T = Trace of Precipitation, MM = Missing Value Source: NWS Daily Summary

Daily Weather History Graph

Daily Weather History Graph

Search for Another Location

Airport or City:

Trip Planner

Search our weather history database for the weather conditions in past years. The results will help you decide how hot, cold, wet, or windy it might be!

Date:

Astronomy

Nov. 24, 2010 Rise Set
Actual Time 7:09 AM EST 5:02 PM EST
Civil Twilight 6:40 AM EST 5:31 PM EST
Nautical Twilight 6:08 AM EST 6:03 PM EST
Astronomical Twilight 5:37 AM EST 6:34 PM EST
Moon 7:48 PM EST (11/24) 9:54 AM EST (11/24)
Length of Visible Light 10h 50m
Length of Day
9h 53m
Waning Gibbous, 90% of the Moon is Illuminated
Nov 24
Waning Gibbous
Nov 28
Last Quarter
Dec 5
New
Dec 13
First Quarter
Dec 21
Full

Hourly Weather History & Observations

Time (EST) Temp. Windchill Dew Point Humidity Pressure Visibility Wind Dir Wind Speed Gust Speed Precip Events Conditions
12:00 AM 39.2 °F 29.6 °F 19.4 °F 45% 30.13 in 10.0 mi WNW 19.6 mph 26.5 mph N/A   Clear
12:20 AM 39.2 °F 30.2 °F 17.6 °F 42% 30.13 in 10.0 mi West 17.3 mph 26.5 mph N/A   Clear
12:40 AM 37.4 °F 28.5 °F 17.6 °F 45% 30.13 in 10.0 mi WNW 15.0 mph 19.6 mph N/A   Clear
1:00 AM 37.4 °F 28.2 °F 15.8 °F 41% 30.12 in 10.0 mi WNW 16.1 mph 29.9 mph N/A   Clear
1:20 AM 37.4 °F 28.5 °F 15.8 °F 41% 30.13 in 10.0 mi WNW 15.0 mph 23.0 mph N/A   Clear
1:40 AM 37.4 °F 28.2 °F 17.6 °F 45% 30.13 in 10.0 mi WNW 16.1 mph 23.0 mph N/A   Clear
2:00 AM 35.6 °F 25.5 °F 19.4 °F 52% 30.14 in 10.0 mi WNW 17.3 mph 24.2 mph N/A   Clear
2:20 AM 33.8 °F 23.2 °F 19.4 °F 56% 30.14 in 10.0 mi WNW 17.3 mph - N/A   Clear
2:40 AM 35.6 °F 24.8 °F 19.4 °F 52% 30.14 in 10.0 mi WNW 19.6 mph 24.2 mph N/A   Clear
3:00 AM 33.8 °F 23.9 °F 21.2 °F 60% 30.14 in 10.0 mi WNW 15.0 mph 21.9 mph N/A   Clear
3:40 AM 33.8 °F 24.8 °F 19.4 °F 56% 30.14 in 10.0 mi WNW 12.7 mph 20.7 mph N/A   Clear
4:00 AM 33.8 °F 23.9 °F 21.2 °F 60% 30.14 in 10.0 mi West 15.0 mph 19.6 mph N/A   Clear
4:20 AM 33.8 °F 25.8 °F 19.4 °F 56% 30.14 in 10.0 mi WNW 10.4 mph 16.1 mph N/A   Clear
4:40 AM 33.8 °F 25.8 °F 21.2 °F 60% 30.15 in 10.0 mi WNW 10.4 mph - N/A   Clear
5:00 AM 32.0 °F 23.6 °F 19.4 °F 60% 30.16 in 10.0 mi WNW 10.4 mph - N/A   Clear
5:20 AM 32.0 °F 23.0 °F 21.2 °F 64% 30.16 in 10.0 mi WNW 11.5 mph - N/A   Clear
6:00 AM 30.2 °F 22.6 °F 21.2 °F 69% 30.16 in 10.0 mi WNW 8.1 mph - N/A   Clear
6:20 AM 30.2 °F 22.6 °F 21.2 °F 69% 30.17 in 10.0 mi WNW 8.1 mph - N/A   Clear
7:00 AM 32.0 °F 24.2 °F 19.4 °F 60% 30.18 in 10.0 mi NW 9.2 mph - N/A   Clear
7:20 AM 32.0 °F 25.6 °F 19.4 °F 60% 30.19 in 10.0 mi WNW 6.9 mph - N/A   Clear
7:40 AM 32.0 °F 25.6 °F 19.4 °F 60% 30.20 in 10.0 mi WNW 6.9 mph - N/A   Clear
8:00 AM 33.8 °F 27.0 °F 17.6 °F 52% 30.20 in 10.0 mi WNW 8.1 mph - N/A   Clear
8:20 AM 33.8 °F 27.7 °F 17.6 °F 52% 30.21 in 10.0 mi WNW 6.9 mph - N/A   Clear
8:40 AM 35.6 °F 30.7 °F 14.0 °F 41% 30.22 in 10.0 mi WNW 5.8 mph - N/A   Clear
9:00 AM 37.4 °F 34.9 °F 14.0 °F 38% 30.21 in 10.0 mi NW 3.5 mph - N/A   Clear
9:20 AM 39.2 °F 35.9 °F 10.4 °F 31% 30.23 in 10.0 mi NW 4.6 mph - N/A   Clear
9:40 AM 41.0 °F 39.0 °F 12.2 °F 31% 30.23 in 10.0 mi NE 3.5 mph - N/A   Clear
10:00 AM 39.2 °F - 12.2 °F 33% 30.24 in 10.0 mi Calm Calm - N/A   Clear
10:20 AM 41.0 °F - 17.6 °F 39% 30.23 in 10.0 mi Calm Calm - N/A   Clear
10:40 AM 41.0 °F - 15.8 °F 36% 30.23 in 10.0 mi Calm Calm - N/A   Clear
11:00 AM 41.0 °F - 17.6 °F 39% 30.24 in 10.0 mi Calm Calm - N/A   Clear
11:20 AM 42.8 °F - 17.6 °F 36% 30.24 in 10.0 mi Calm Calm - N/A   Clear
11:40 AM 44.6 °F - 17.6 °F 34% 30.23 in 10.0 mi Calm Calm - N/A   Clear
12:00 PM 42.8 °F - 19.4 °F 39% 30.22 in 10.0 mi Calm Calm - N/A   Clear
12:20 PM 44.6 °F - 21.2 °F 39% 30.22 in 10.0 mi Calm Calm - N/A   Clear
12:40 PM 42.8 °F 40.1 °F 21.2 °F 42% 30.21 in 10.0 mi South 4.6 mph - N/A   Clear
1:00 PM 42.8 °F 41.1 °F 21.2 °F 42% 30.21 in 10.0 mi SE 3.5 mph - N/A   Clear
1:20 PM 44.6 °F 43.1 °F 21.2 °F 39% 30.22 in 10.0 mi South 3.5 mph - N/A   Clear
1:40 PM 44.6 °F - 19.4 °F 37% 30.20 in 10.0 mi Calm Calm - N/A   Clear
2:00 PM 44.6 °F 43.1 °F 19.4 °F 37% 30.20 in 10.0 mi SSE 3.5 mph - N/A   Clear
2:20 PM 44.6 °F 43.1 °F 21.2 °F 39% 30.20 in 10.0 mi SE 3.5 mph - N/A   Clear
2:40 PM 44.6 °F - 19.4 °F 37% 30.21 in 10.0 mi Calm Calm - N/A   Clear
3:00 PM 44.6 °F 41.4 °F 15.8 °F 31% 30.19 in 10.0 mi East 5.8 mph - N/A   Scattered Clouds
3:20 PM 44.6 °F - 12.2 °F 27% 30.21 in 10.0 mi Calm Calm - N/A   Scattered Clouds
3:40 PM 44.6 °F 42.2 °F 14.0 °F 29% 30.20 in 10.0 mi East 4.6 mph - N/A   Clear
4:00 PM 42.8 °F 38.6 °F 14.0 °F 31% 30.19 in - East 6.9 mph - N/A   Scattered Clouds
4:20 PM 42.8 °F 39.3 °F 15.8 °F 34% 30.19 in 10.0 mi ESE 5.8 mph - N/A   Scattered Clouds
4:40 PM 42.8 °F 39.3 °F 15.8 °F 34% 30.20 in 10.0 mi ESE 5.8 mph - N/A   Scattered Clouds
5:00 PM 42.8 °F - 15.8 °F 34% 30.21 in 10.0 mi Calm Calm - N/A   Mostly Cloudy
5:20 PM 42.8 °F 39.3 °F 15.8 °F 34% 30.20 in 10.0 mi East 5.8 mph - N/A   Overcast
5:40 PM 41.0 °F 38.0 °F 15.8 °F 36% 30.21 in 10.0 mi ESE 4.6 mph - N/A   Overcast
6:00 PM 42.8 °F 38.6 °F 15.8 °F 34% 30.21 in 10.0 mi ESE 6.9 mph - N/A   Overcast
6:20 PM 41.0 °F 35.2 °F 15.8 °F 36% 30.18 in 10.0 mi ESE 9.2 mph - N/A   Overcast
6:40 PM 41.0 °F 35.8 °F 15.8 °F 36% 30.19 in 10.0 mi ESE 8.1 mph - N/A   Overcast
7:00 PM 41.0 °F 35.8 °F 15.8 °F 36% 30.17 in 10.0 mi ESE 8.1 mph - N/A   Overcast
7:20 PM 41.0 °F 34.3 °F 15.8 °F 36% 30.17 in 10.0 mi SE 11.5 mph - N/A   Mostly Cloudy
7:40 PM 41.0 °F 34.3 °F 15.8 °F 36% 30.17 in 10.0 mi SE 11.5 mph - N/A   Overcast
8:20 PM - - - N/A% 30.17 in - North - - N/A   Unknown
8:40 PM - - - N/A% 30.16 in - North - - N/A   Unknown
9:00 PM 39.2 °F - 19.4 °F 45% 30.17 in - North - - N/A   Unknown
9:20 PM 39.2 °F - 21.2 °F 49% 30.14 in - North - - N/A   Unknown
10:00 PM 39.2 °F 32.5 °F - N/A% 30.16 in - SSE 10.4 mph - N/A   Unknown
10:20 PM 39.2 °F - 23.0 °F 52% 30.14 in - North - - N/A   Unknown
10:40 PM 37.4 °F 29.3 °F 23.0 °F 56% 30.13 in 10.0 mi SSE 12.7 mph 17.3 mph N/A   Unknown
11:00 PM - - - N/A% 30.14 in - SSE 10.4 mph 17.3 mph N/A   Unknown
11:20 PM 39.2 °F - 23.0 °F 52% 30.12 in - North - - N/A   Unknown
11:40 PM - - - N/A% 30.12 in - North - - N/A   Unknown